Location: Unspecified
(0.0000°N, 0.0000°E)
Time: 16:24:47
(UTC+00:00)

Tiros 1 - All Passes

Search period start: 25 July 2024 00:00
Search period end: 04 August 2024 00:00
Orbit: 624 x 656 km, 48.4° (Epoch: 24 July)

Date Brightness Start Highest point End Pass type
(mag) Time Alt. Az. Time Alt. Az. Time Alt. Az.
25 Jul - 07:11:06 10° S 07:14:26 19° SE 07:17:46 10° E daylight
25 Jul - 08:52:00 10° WSW 08:56:20 34° NW 09:00:39 10° NNE daylight
25 Jul - 19:22:15 10° N 19:26:17 31° NE 19:30:19 10° ESE visible
25 Jul - 21:04:53 10° W 21:08:08 19° SW 21:11:25 10° S visible
26 Jul - 07:33:31 10° SSW 07:38:12 57° SE 07:42:51 10° NE daylight
26 Jul - 09:18:32 10° WNW 09:20:08 11° NW 09:21:43 10° NNW daylight
26 Jul - 19:45:26 10° NW 19:49:59 79° SW 19:54:35 10° SE visible
27 Jul - 06:17:16 10° SSE 06:20:00 15° SE 06:22:42 10° E daylight
27 Jul - 07:57:22 10° WSW 08:01:54 43° NW 08:06:25 10° NNE daylight
27 Jul - 18:28:09 10° N 18:31:52 24° NE 18:35:35 10° ESE visible
27 Jul - 20:10:02 10° WNW 20:13:43 24° SW 20:17:25 10° S visible
28 Jul - 06:39:13 10° SSW 06:43:46 45° SE 06:48:18 10° ENE daylight
28 Jul - 08:23:03 10° W 08:25:39 15° NW 08:28:17 10° NNW daylight
28 Jul - 18:51:01 10° NW 18:55:35 81° NE 19:00:09 10° SE visible
29 Jul - 05:23:45 10° SSE 05:25:31 12° SE 05:27:17 10° ESE visible
29 Jul - 07:02:48 10° SW 07:07:28 55° NW 07:12:07 10° NNE daylight
29 Jul - 17:34:07 10° N 17:37:26 20° NE 17:40:45 10° E daylight
29 Jul - 19:15:17 10° WNW 19:19:17 30° SW 19:23:18 10° S visible
30 Jul - 05:44:57 10° SSW 05:49:18 35° SE 05:53:39 10° ENE daylight
30 Jul - 07:27:56 10° W 07:31:11 18° NW 07:34:27 10° N daylight
30 Jul - 17:56:38 10° NNW 18:01:09 63° NE 18:05:40 10° SE daylight
31 Jul - 06:08:16 10° SW 06:13:00 71° NW 06:17:44 10° NNE daylight
31 Jul - 16:40:12 10° NNE 16:42:58 16° NE 16:45:44 10° E daylight
31 Jul - 18:20:36 10° WNW 18:24:50 38° SW 18:29:05 10° SSE daylight
01 Aug - 04:50:45 10° S 04:54:50 28° SE 04:58:55 10° ENE visible
01 Aug - 06:33:00 10° WSW 06:36:43 23° NW 06:40:26 10° N daylight
01 Aug - 17:02:16 10° NNW 17:06:42 49° NE 17:11:07 10° SE daylight
01 Aug - 18:46:44 10° WSW 18:48:36 12° SW 18:50:29 10° SSW visible
02 Aug - 05:13:47 10° SW 05:18:31 89° W 05:23:18 10° NE visible
02 Aug - 15:46:32 10° NNE 15:48:29 12° NE 15:50:26 10° ENE daylight
02 Aug - 17:25:58 10° NW 17:30:23 48° SW 17:34:48 10° SSE daylight
03 Aug - 03:56:37 10° S 04:00:21 23° SE 04:04:05 10° ENE visible
03 Aug - 05:38:10 10° WSW 05:42:13 28° NW 05:46:17 10° N visible
03 Aug - 16:07:58 10° NNW 16:12:15 38° NE 16:16:31 10° ESE daylight
03 Aug - 17:51:23 10° W 17:54:07 16° SW 17:56:51 10° SSW daylight
